Terug naar catalogus

EUTE 2-F2

ActiefCommunicatieGEO
NORAD 21056·PAYLOAD·🇪🇺 EU

Gelanceerd Jan 15, 1991 vanaf Guiana Space Centre

Loading…

TLE

VersSource: Space-Track

Epoch: Sep 12, 2026, 21:07 UTC

1 21056U 91003B   26255.88016993  .00000031  00000-0  00000-0 0  9995
2 21056  14.9165   0.9491 0005187 194.5343 167.6293  0.98939627117090

Volg EUTE 2-F2 in realtime met AllMySat

Download on the App Store